Date,TemperatureHighF,TemperatureAvgF,TemperatureLowF,DewpointHighF,DewpointAvgF,DewpointLowF,HumidityHigh,HumidityAvg,HumidityLow,PressureMaxIn,PressureMinIn,WindSpeedMaxMPH,WindSpeedAvgMPH,GustSpeedMaxMPH,PrecipitationSumIn
2014-1-1,38,23,12,26,18,9,88,80,62,30.35,30.10,13,6,25,0.00
2014-1-2,17,9,1,9,2,-3,87,75,59,30.61,30.35,13,4,22,0.00
2014-1-3,36,20,0,24,12,-5,81,71,63,30.59,29.90,13,6,23,0.00
2014-1-4,42,30,17,31,22,14,89,73,63,30.15,29.87,14,5,26,0.00
2014-1-5,17,10,1,14,5,-8,89,78,62,30.59,30.09,17,12,30,0.00
2014-1-6,3,-2,-7,-7,-12,-16,71,62,56,30.68,30.56,14,8,24,0.00
2014-1-7,35,16,-1,21,7,-8,79,67,52,30.56,30.22,8,2,21,0.00
2014-1-8,26,21,17,17,14,12,82,74,66,30.48,30.31,10,4,16,0.00
2014-1-9,32,23,17,31,20,12,93,88,81,30.46,30.13,6,1,9,0.00
2014-1-10,45,37,32,44,36,31,97,96,93,30.13,29.60,9,3,11,0.04
2014-1-11,45,38,33,36,33,30,96,84,66,29.98,29.67,13,4,18,0.01
2014-1-12,63,47,33,40,34,29,85,62,41,29.96,29.55,15,4,24,0.00
2014-1-13,48,41,34,35,32,26,83,70,51,29.91,29.63,11,3,14,0.00
2014-1-14,44,38,24,34,24,14,74,59,37,30.25,29.78,18,9,30,0.00
2014-1-15,36,26,18,24,14,5,77,60,31,30.32,29.91,11,4,16,0.00
2014-1-16,46,37,17,30,23,6,80,59,44,30.10,29.79,23,11,31,0.00
2014-1-17,31,22,17,12,9,5,77,57,42,30.22,30.10,17,8,26,0.00
2014-1-18,49,34,22,33,21,10,78,60,49,30.17,29.76,20,9,31,0.00
2014-1-19,58,38,21,31,24,16,84,61,34,30.17,29.84,16,6,24,0.00
2014-1-20,52,42,23,34,28,13,73,60,48,30.28,29.89,22,6,29,0.00
2014-1-21,22,15,6,13,2,-2,73,57,40,30.56,30.23,20,6,31,0.00
2014-1-22,35,25,8,19,10,-5,72,54,34,30.58,30.15,16,7,24,0.00
2014-1-23,16,8,2,-2,-4,-7,66,56,44,30.91,30.58,13,6,20,0.00
2014-1-24,42,25,7,22,7,-2,69,48,33,30.77,29.82,21,11,32,0.00
2014-1-25,48,39,26,35,21,8,71,50,27,30.07,29.80,18,7,23,0.00
2014-1-26,57,43,20,34,27,2,70,53,28,30.24,29.67,24,10,33,0.00
2014-1-27,19,11,6,0,-5,-9,60,47,37,30.63,30.24,18,7,24,0.00
2014-1-28,23,13,3,6,-1,-5,72,54,34,30.64,30.42,7,1,10,0.00
2014-1-29,40,26,12,17,10,2,68,51,34,30.42,30.00,13,5,19,0.00
2014-1-30,44,37,30,25,18,13,64,47,40,30.06,29.76,20,8,33,0.00
2014-1-31,30,22,20,20,17,14,92,80,60,30.18,30.01,9,5,14,0.00
2014-2-1,27,24,20,25,22,18,94,90,85,30.31,29.91,9,4,14,0.00
2014-2-2,23,15,11,19,9,5,86,76,62,30.50,30.31,9,3,15,0.00
2014-2-3,28,18,6,21,12,2,86,78,68,30.50,30.34,6,1,9,0.00
2014-2-4,24,22,18,21,19,16,92,89,82,30.36,30.09,14,6,18,0.00
2014-2-5,18,9,2,16,5,-2,91,83,75,30.76,30.20,15,9,21,0.00
2014-2-6,13,5,-2,6,-1,-6,84,77,68,30.78,30.61,6,0,10,0.00
2014-2-7,16,10,4,10,4,-1,81,75,63,30.61,30.33,3,0,6,0.00
2014-2-8,28,23,15,24,19,10,86,84,80,30.33,30.16,5,1,9,0.00
2014-2-9,27,20,13,24,16,6,87,81,71,30.52,30.21,9,4,16,0.00
2014-2-10,14,10,6,6,1,-2,75,68,59,30.63,30.51,9,2,10,0.00
2014-2-11,17,8,-1,5,0,-6,80,68,54,30.64,30.38,3,0,5,0.00
2014-2-12,34,21,7,23,12,0,84,69,50,30.38,30.06,5,1,9,0.02
2014-2-13,44,34,22,34,27,18,87,78,65,30.07,29.80,12,3,19,0.15
2014-2-14,35,28,20,31,23,16,91,83,71,30.21,29.63,15,5,22,0.00
2014-2-15,36,24,13,30,19,9,86,79,69,30.21,29.98,8,2,11,0.00
2014-2-16,36,31,29,30,27,25,88,84,79,30.30,30.00,11,5,15,0.00
2014-2-17,51,42,34,38,32,28,91,72,48,30.07,29.82,15,7,22,0.10
2014-2-18,63,50,40,38,33,28,66,53,36,30.04,29.75,20,6,28,0.00
2014-2-19,51,44,37,40,35,30,86,72,60,30.07,29.61,12,3,16,0.18
2014-2-20,66,45,35,59,39,24,95,80,60,29.81,29.24,22,8,31,0.01
2014-2-21,58,42,30,30,24,18,69,50,29,29.98,29.81,18,6,29,0.00
2014-2-22,52,41,30,36,29,24,79,63,46,30.15,29.94,10,3,18,0.00
2014-2-23,33,29,25,25,18,12,79,64,53,30.44,30.14,13,5,17,0.00
2014-2-24,35,29,23,21,18,15,74,63,46,30.46,30.26,8,2,15,0.00
2014-2-25,28,23,18,20,14,6,83,69,60,30.53,30.32,11,6,17,0.00
2014-2-26,28,19,8,17,6,-2,72,58,34,30.53,30.06,13,5,18,0.00
2014-2-27,29,24,17,18,7,-3,78,51,26,30.28,30.06,9,4,13,0.00
2014-2-28,51,36,20,31,20,5,65,52,39,30.06,29.89,11,5,16,0.00
2014-3-1,41,23,10,31,18,7,89,81,65,30.43,30.06,13,8,19,0.00
2014-3-2,10,4,2,7,-1,-5,87,78,70,30.63,30.43,14,10,20,0.00
2014-3-3,19,7,-3,7,-1,-9,76,69,54,30.68,30.41,12,2,17,0.00
2014-3-4,44,25,10,29,16,5,82,68,56,30.40,30.11,6,2,11,0.05
2014-3-5,41,37,31,29,28,25,80,70,59,30.34,30.23,9,5,13,0.00
2014-3-6,49,37,25,33,28,23,91,72,52,30.34,30.05,5,1,10,0.00
2014-3-7,61,45,33,39,33,24,86,63,40,30.09,29.88,12,4,16,0.00
2014-3-8,38,34,30,32,28,26,87,81,73,30.39,30.08,10,5,16,0.00
2014-3-9,58,42,27,36,31,24,90,68,42,30.39,30.01,14,6,23,0.00
2014-3-10,73,56,42,40,37,32,78,51,30,30.01,29.69,14,7,19,0.00
2014-3-11,78,57,34,55,43,32,93,62,42,29.86,29.44,19,7,28,0.26
2014-3-12,50,40,33,34,30,26,94,71,51,30.21,29.88,17,8,22,0.06
2014-3-13,67,50,31,34,30,26,84,52,24,30.17,29.89,13,3,16,0.00
2014-3-14,64,55,50,35,30,27,49,40,27,30.04,29.76,13,7,22,0.00
2014-3-15,71,55,37,48,36,26,80,52,34,30.03,29.83,16,4,21,0.17
2014-3-16,43,33,25,38,27,18,93,78,53,30.26,29.96,21,11,31,0.21
2014-3-17,49,34,20,27,21,16,85,63,32,30.20,29.70,8,2,13,0.00
2014-3-18,64,51,39,43,37,26,81,60,43,29.71,29.48,12,6,19,0.00
2014-3-19,55,44,36,39,32,27,86,64,40,30.17,29.61,17,8,23,0.00
2014-3-20,68,53,38,34,31,27,66,45,26,30.15,29.88,18,7,25,0.00
2014-3-21,65,55,44,39,35,31,64,48,35,30.14,29.81,13,6,20,0.00
2014-3-22,45,38,29,34,21,13,78,53,30,30.49,30.14,13,8,19,0.00
2014-3-23,41,32,24,22,14,8,83,49,29,30.60,30.39,12,4,20,0.00
2014-3-24,41,34,28,32,22,12,87,63,44,30.42,30.25,8,2,11,0.00
2014-3-25,40,33,27,28,17,9,90,56,28,30.44,30.28,17,5,26,0.00
2014-3-26,55,39,25,40,24,13,90,56,31,30.33,29.85,15,7,26,0.12
2014-3-27,68,53,42,58,46,35,91,78,59,29.85,29.34,18,9,26,0.04
2014-3-28,47,41,36,38,35,32,86,79,69,30.21,29.84,9,0,0,0.00
2014-3-29,56,43,31,34,32,29,93,69,43,30.36,30.21,8,0,0,0.00
2014-3-30,73,55,37,41,35,30,79,52,27,30.27,29.88,11,1,0,0.00
2014-3-31,74,62,45,54,43,26,65,51,27,29.96,29.61,14,2,23,0.03
2014-4-1,54,43,30,35,27,21,69,53,40,30.15,29.96,13,0,19,0.00
2014-4-2,55,49,43,52,46,35,96,88,58,30.06,29.72,4,0,9,0.81
2014-4-3,69,57,45,62,55,41,97,92,78,29.79,29.54,11,0,19,0.54
2014-4-4,45,41,39,41,33,31,87,73,63,30.23,29.74,15,5,24,0.00
2014-4-5,56,45,32,36,32,28,89,64,41,30.28,30.10,1,0,6,0.00
2014-4-6,62,53,44,41,38,34,75,58,37,30.11,29.85,0,0,1,0.00
2014-4-7,67,55,46,45,39,30,76,56,26,29.85,29.74,4,0,6,0.01
2014-4-8,59,51,44,43,38,30,80,62,37,30.11,29.85,13,1,14,0.01
2014-4-9,72,56,41,41,35,30,67,46,30,30.16,29.81,4,0,14,0.00
2014-4-10,71,62,54,50,42,28,60,47,34,30.01,29.72,3,0,9,0.00
2014-4-11,76,61,43,42,36,29,70,40,25,30.11,29.93,1,0,7,0.00
2014-4-12,84,71,58,64,57,42,86,63,50,29.92,29.57,9,1,21,0.00
2014-4-13,74,63,42,63,57,40,95,81,57,29.70,29.42,12,1,21,1.25
2014-4-14,43,37,33,40,30,21,95,76,42,30.24,29.70,13,3,22,0.03
2014-4-15,53,42,31,33,28,23,82,60,38,30.30,30.12,2,0,9,0.00
2014-4-16,65,53,42,38,34,29,62,49,33,30.12,29.91,14,1,20,0.00
2014-4-17,55,44,40,39,36,34,87,75,51,30.35,30.06,5,0,11,0.00
2014-4-18,69,52,35,47,41,33,93,69,42,30.38,30.19,0,0,0,0.00
2014-4-19,77,64,49,52,47,42,78,57,36,30.23,30.09,2,0,14,0.00
2014-4-20,79,68,57,57,52,47,72,59,42,30.13,30.00,3,0,13,0.00
2014-4-21,76,66,58,62,58,54,88,75,58,30.01,29.91,7,0,19,0.07
2014-4-22,71,58,47,54,40,36,87,53,30,30.16,30.00,2,0,9,0.00
2014-4-23,73,60,51,46,42,37,66,51,37,30.06,29.74,9,0,19,0.00
2014-4-24,67,59,52,58,51,44,95,76,48,29.84,29.59,13,0,13,1.75
2014-4-25,76,63,49,52,48,44,89,62,37,29.97,29.85,2,0,13,0.00
2014-4-26,79,66,55,58,50,44,74,57,43,29.85,29.62,5,0,18,0.01
2014-4-27,76,66,56,66,59,51,96,78,53,29.63,29.36,11,0,16,0.87
2014-4-28,63,60,54,60,50,41,90,72,51,29.46,29.30,7,1,25,0.00
2014-4-29,54,49,45,50,44,42,93,85,63,29.84,29.43,3,0,15,0.11
2014-4-30,54,47,41,43,39,35,86,75,51,30.00,29.84,3,0,18,0.00
2014-5-1,53,48,44,43,40,38,81,74,66,30.04,29.94,1,0,9,0.00
2014-5-2,68,57,46,42,40,36,81,57,32,30.04,29.83,4,0,6,0.00
2014-5-3,79,66,53,51,44,39,64,47,31,29.96,29.83,0,0,0,0.00
2014-5-4,88,70,54,58,51,47,78,54,32,29.93,29.73,0,0,1,0.00
2014-5-5,87,72,61,58,53,50,76,54,32,29.76,29.68,6,0,12,0.00
2014-5-6,88,74,59,67,59,49,73,60,46,29.76,29.52,2,0,14,0.00
2014-5-7,88,79,70,68,65,63,79,63,48,29.72,29.61,2,0,13,0.00
2014-5-8,78,73,70,66,64,56,82,71,61,29.77,29.69,4,0,19,0.00
2014-5-9,74,64,54,57,48,44,79,58,36,29.92,29.73,1,0,9,0.00
2014-5-10,85,70,54,65,57,48,86,64,43,29.92,29.68,3,0,17,0.00
2014-5-11,87,76,64,69,66,61,89,72,52,29.83,29.66,8,0,19,0.00
2014-5-12,82,71,53,70,64,49,93,81,65,30.01,29.69,8,0,16,0.57
2014-5-13,61,54,50,49,46,43,89,75,55,30.28,30.01,2,0,7,0.01
2014-5-14,58,52,48,44,41,36,84,67,46,30.30,30.16,2,0,5,0.00
2014-5-15,58,52,46,45,37,31,89,59,36,30.17,30.09,6,0,15,0.12
2014-5-16,58,48,38,39,35,30,88,62,37,30.19,30.11,1,0,1,0.00
2014-5-17,65,54,41,44,39,36,91,61,37,30.23,30.16,2,0,4,0.00
2014-5-18,73,60,46,50,45,39,79,59,39,30.24,30.03,2,0,16,0.00
2014-5-19,84,75,60,62,58,50,78,56,38,30.05,29.73,5,0,20,0.00
2014-5-20,87,76,62,68,64,58,87,67,52,29.87,29.78,3,0,20,0.00
2014-5-21,87,78,68,69,67,63,86,68,54,30.02,29.83,1,0,3,0.00
2014-5-22,85,72,62,66,56,52,79,59,37,30.18,30.01,5,0,13,0.00
2014-5-23,84,71,58,58,54,52,84,58,36,30.18,30.06,0,0,2,0.00
2014-5-24,72,68,63,66,60,52,94,78,55,30.15,30.02,2,0,5,0.41
2014-5-25,86,74,64,70,66,62,95,77,51,30.05,29.93,3,0,9,0.00
2014-5-26,82,73,67,70,67,63,92,80,61,30.02,29.95,3,0,6,0.00
2014-5-27,85,75,67,68,66,62,92,74,49,30.01,29.90,1,0,1,0.00
2014-5-28,91,78,68,70,67,64,90,71,44,29.96,29.88,1,0,3,0.00
2014-5-29,88,78,67,70,67,62,88,69,50,29.99,29.89,7,1,12,0.00
2014-5-30,87,76,69,73,68,65,90,76,52,30.05,29.97,7,1,15,0.28
2014-5-31,86,75,68,76,69,65,93,81,59,30.07,29.94,9,2,11,0.15
2014-6-1,86,77,70,72,69,67,93,77,59,29.98,29.77,12,4,15,0.00
2014-6-2,84,74,64,71,67,62,94,79,61,29.97,29.79,14,2,17,0.49
2014-6-3,90,81,72,75,72,68,89,75,57,29.99,29.73,11,2,15,0.00
2014-6-4,84,75,66,72,68,64,95,80,66,29.82,29.67,18,2,24,1.20
2014-6-5,79,72,66,69,66,63,94,84,65,29.97,29.61,16,2,22,0.30
2014-6-6,76,70,65,68,65,62,94,84,73,29.99,29.88,7,2,12,0.00
2014-6-7,75,70,66,70,67,61,96,88,74,29.96,29.72,13,2,20,0.86
2014-6-8,76,68,60,64,62,58,95,81,65,30.06,29.94,5,1,11,0.00
2014-6-9,74,66,61,66,62,60,95,88,71,29.96,29.74,7,2,13,0.51
2014-6-10,68,62,59,64,60,58,96,93,85,29.80,29.71,10,4,17,0.42
2014-6-11,79,69,61,65,62,60,96,81,60,29.86,29.78,4,1,7,0.00
2014-6-12,76,69,64,66,62,57,94,80,59,30.01,29.80,8,2,14,0.59
2014-6-13,79,67,56,57,52,47,85,61,33,30.13,29.96,6,2,9,0.00
2014-6-14,82,71,59,68,61,54,85,71,61,29.99,29.73,13,6,18,0.00
2014-6-15,82,74,65,71,67,63,94,80,64,29.98,29.66,16,4,18,0.09
2014-6-16,90,80,69,75,71,67,94,76,60,29.99,29.76,14,5,23,0.00
2014-6-17,89,82,75,76,73,70,86,74,63,29.93,29.78,11,5,18,0.00
2014-6-18,91,83,75,76,73,71,87,74,60,29.90,29.83,11,5,17,0.00
2014-6-19,89,80,72,76,72,69,94,78,56,29.98,29.86,12,2,21,0.98
2014-6-20,96,82,71,77,72,66,91,73,39,30.02,29.92,6,1,9,0.00
2014-6-21,92,81,74,76,70,67,83,72,54,29.97,29.83,7,1,13,0.00
2014-6-22,91,80,66,74,71,62,92,74,52,29.89,29.72,22,3,31,0.33
2014-6-23,81,74,67,71,68,64,94,82,69,29.92,29.80,3,1,10,0.00
2014-6-24,88,78,67,69,66,62,89,69,43,30.00,29.92,5,1,11,0.00
2014-6-25,90,80,70,71,67,60,83,65,45,30.05,29.94,2,0,7,0.00
2014-6-26,88,79,68,73,70,66,91,75,57,30.00,29.82,7,2,13,0.00
2014-6-27,88,80,72,74,71,69,91,76,60,29.88,29.77,10,3,15,0.00
2014-6-28,82,75,68,73,70,66,94,85,75,29.95,29.79,11,4,17,1.12
2014-6-29,89,79,67,79,73,65,95,84,71,29.98,29.79,9,2,13,0.01
2014-6-30,94,84,71,79,75,-100,88,75,56,29.83,29.63,16,5,26,0.12
2014-7-1,86,77,70,70,66,58,92,70,48,29.98,29.76,9,3,13,0.00
2014-7-2,75,67,60,59,56,53,86,69,49,30.16,29.98,11,4,18,0.00
2014-7-3,84,71,56,61,56,53,90,63,38,30.24,30.15,5,1,10,0.00
2014-7-4,84,74,63,63,59,57,81,62,43,30.29,30.17,7,1,12,0.00
2014-7-5,84,74,66,74,67,60,84,80,72,30.20,29.96,11,3,11,0.00
2014-7-6,86,79,70,76,71,65,91,78,60,29.99,29.82,14,5,20,0.49
2014-7-7,94,83,68,78,74,64,94,76,53,29.90,29.66,18,1,21,1.71
2014-7-8,86,76,67,69,66,62,94,72,48,29.98,29.76,9,3,16,0.23
2014-7-9,88,77,68,67,64,60,83,65,41,30.07,29.98,5,1,9,0.00
2014-7-10,84,74,66,69,64,60,84,72,56,30.11,30.02,9,2,12,0.00
2014-7-11,91,79,66,79,71,63,93,78,64,30.08,29.98,9,2,12,0.00
2014-7-12,94,84,77,76,73,71,83,70,55,30.06,29.91,8,3,18,0.00
2014-7-13,89,82,74,76,72,69,90,74,59,30.02,29.92,8,2,12,0.13
2014-7-14,82,75,65,72,65,55,87,72,48,30.08,29.91,11,2,14,0.19
2014-7-15,79,68,55,59,55,51,85,65,47,30.14,30.04,10,2,15,0.00
2014-7-16,81,71,61,60,56,51,89,62,39,30.10,30.02,4,0,8,0.00
2014-7-17,81,71,60,62,58,54,86,65,41,30.10,30.05,3,0,7,0.00
2014-7-18,82,73,63,64,61,58,88,68,47,30.11,30.01,6,1,11,0.00
2014-7-19,83,73,60,66,62,57,91,70,48,30.07,29.97,7,1,10,0.00
2014-7-20,84,74,64,69,66,61,91,75,59,30.03,29.93,8,2,11,0.00
2014-7-21,93,83,70,78,74,65,88,75,62,29.99,29.93,9,2,16,0.00
2014-7-22,96,85,73,84,77,70,91,79,65,30.02,29.95,7,2,15,0.00
2014-7-23,90,82,72,81,70,64,87,69,49,30.12,30.01,8,4,14,0.00
2014-7-24,83,74,66,65,62,60,84,67,47,30.16,29.96,8,2,12,0.00
2014-7-25,92,80,65,78,70,59,83,73,62,29.97,29.75,9,4,15,0.00
2014-7-26,89,82,77,80,75,71,88,80,66,29.86,29.77,10,2,16,0.29
2014-7-27,89,82,72,76,68,60,90,66,41,30.08,29.80,12,4,20,0.00
2014-7-28,83,73,63,65,62,58,86,68,51,30.19,30.08,7,2,12,0.00
2014-7-29,87,75,64,65,62,59,87,66,41,30.17,30.06,4,1,7,0.00
2014-7-30,86,75,64,65,62,60,88,66,44,30.10,30.04,2,0,6,0.00
2014-7-31,87,75,62,65,62,58,90,67,41,30.10,30.02,1,0,5,0.00
2014-8-1,89,76,66,67,64,61,86,68,47,30.09,30.03,3,0,5,0.01
2014-8-2,91,78,64,68,64,60,87,64,43,30.16,30.06,2,0,6,0.00
2014-8-3,88,75,66,68,65,61,91,72,50,30.20,30.04,10,1,15,0.10
2014-8-4,91,78,67,75,69,63,90,74,56,30.12,29.94,8,2,13,0.23
2014-8-5,92,81,71,76,71,67,86,73,56,30.06,29.96,8,1,11,0.32
2014-8-6,91,78,70,75,71,66,94,81,57,30.02,29.86,12,2,16,0.96
2014-8-7,84,75,69,73,70,67,97,84,68,29.93,29.84,7,2,12,0.64
2014-8-8,80,75,72,70,69,68,90,82,71,29.98,29.89,5,0,9,0.00
2014-8-9,86,77,70,74,70,67,93,80,63,30.03,29.95,2,0,5,0.00
2014-8-10,81,75,70,74,71,68,95,89,77,30.02,29.93,8,0,12,0.80
2014-8-11,83,75,68,72,66,60,93,77,53,30.04,29.98,12,3,19,0.00
2014-8-12,82,71,60,62,59,56,88,69,46,30.10,30.03,7,2,14,0.00
2014-8-13,86,72,59,64,60,56,94,67,44,30.16,30.06,3,0,6,0.00
2014-8-14,88,76,63,67,62,58,85,65,44,30.11,29.99,3,0,6,0.00
2014-8-15,78,72,66,73,67,62,94,85,75,29.99,29.85,10,1,13,0.27
2014-8-16,85,77,70,75,71,68,95,84,70,29.87,29.79,12,4,19,0.35
2014-8-17,84,77,72,72,70,68,87,78,63,29.96,29.86,5,1,9,0.00
2014-8-18,88,77,67,74,70,65,94,80,62,29.95,29.78,3,0,7,0.00
2014-8-19,92,81,72,78,73,67,92,77,57,29.83,29.74,9,1,14,0.02
2014-8-20,94,84,75,77,74,71,90,74,54,29.89,29.79,7,2,13,0.00
2014-8-21,95,84,75,78,73,68,84,70,57,29.91,29.83,9,3,15,0.00
2014-8-22,94,85,77,81,76,72,86,75,60,29.95,29.85,5,1,11,0.00
2014-8-23,97,85,77,78,75,72,91,73,50,29.93,29.80,9,2,14,0.15
2014-8-24,98,85,74,78,73,68,83,68,46,29.91,29.83,7,2,11,0.00
2014-8-25,98,85,73,77,73,68,86,69,46,29.98,29.88,6,1,11,0.00
2014-8-26,98,84,76,78,74,69,86,72,50,30.11,29.94,9,1,12,0.00
2014-8-27,88,80,73,76,73,70,92,80,65,30.11,30.00,7,2,16,0.00
2014-8-28,93,82,72,76,72,69,93,74,51,30.01,29.84,5,1,11,0.00
2014-8-29,84,77,70,72,69,65,89,77,64,29.88,29.79,8,2,15,0.21
2014-8-30,91,80,70,73,70,67,90,74,51,29.92,29.84,6,1,10,0.00
2014-8-31,93,80,68,75,70,64,94,73,48,29.91,29.71,17,3,23,0.34
2014-9-1,83,73,66,71,67,63,95,84,63,29.95,29.61,14,2,22,0.94
2014-9-2,86,76,70,73,70,68,94,82,58,30.00,29.86,3,0,9,0.00
2014-9-3,87,75,68,76,70,67,94,85,62,29.99,29.82,13,3,16,0.18
2014-9-4,94,84,76,75,73,72,89,72,51,29.95,29.86,13,5,22,0.00
2014-9-5,89,76,63,76,68,58,88,78,64,30.19,29.94,12,4,17,0.08
2014-9-6,78,68,58,62,57,54,91,70,46,30.26,30.17,6,2,12,0.00
2014-9-7,81,68,54,58,56,52,94,68,40,30.23,30.08,6,1,7,0.00
2014-9-8,84,70,58,71,63,54,89,77,60,30.09,29.90,6,2,14,0.00
2014-9-9,92,81,72,76,72,68,89,75,58,29.93,29.57,12,5,17,0.00
2014-9-10,83,77,72,74,71,67,93,84,69,29.80,29.56,12,3,15,0.46
2014-9-11,60,56,53,52,51,49,93,82,75,30.28,30.15,7,4,14,0.01
2014-9-12,55,53,47,50,48,42,87,83,76,30.43,30.24,10,3,21,0.00
2014-9-13,65,52,39,48,42,37,96,74,43,30.46,30.29,6,1,10,0.01
2014-9-14,73,60,48,58,52,44,87,74,54,30.31,30.12,5,1,10,0.00
2014-9-15,72,63,55,67,59,51,92,86,78,30.24,30.05,11,2,14,0.18
2014-9-16,76,62,50,57,53,48,93,75,48,30.26,30.05,3,0,5,0.00
2014-9-17,75,66,61,68,63,57,96,90,78,30.05,29.89,3,0,7,0.73
2014-9-18,71,64,60,64,61,59,96,89,77,30.05,29.96,5,1,9,0.01
2014-9-19,81,67,58,69,63,57,97,87,67,30.07,29.94,5,1,10,0.01
2014-9-20,83,75,66,74,70,64,95,84,69,30.01,29.87,9,2,15,0.00
2014-9-21,77,70,59,71,56,50,89,64,39,30.23,29.95,11,4,18,0.00
2014-9-22,78,64,51,57,52,48,92,69,41,30.34,30.22,3,0,8,0.00
2014-9-23,75,64,52,57,53,49,90,70,45,30.30,30.17,8,2,12,0.00
2014-9-24,72,64,57,57,54,52,83,70,55,30.26,30.18,5,1,9,0.00
2014-9-25,84,71,61,60,58,56,87,66,40,30.25,30.13,5,1,12,0.00
2014-9-26,86,72,60,64,60,57,92,69,45,30.20,30.10,5,1,10,0.00
2014-9-27,85,72,61,65,61,58,93,70,44,30.17,30.06,6,1,11,0.00
2014-9-28,88,74,60,65,60,56,90,65,39,30.14,30.04,1,0,4,0.00
2014-9-29,91,76,61,66,61,57,89,63,38,30.08,29.93,2,0,7,0.00
2014-9-30,87,74,60,64,61,57,90,66,41,29.95,29.79,7,1,11,0.00
2014-10-1,77,68,64,69,64,58,95,85,70,29.83,29.71,12,2,17,2.32
2014-10-2,73,66,59,70,64,56,97,94,87,29.81,29.65,12,4,23,0.58
2014-10-3,59,52,44,56,43,34,94,73,45,30.14,29.78,17,7,26,0.02
2014-10-4,58,48,40,38,32,27,79,56,31,30.11,29.90,15,5,28,0.00
2014-10-5,74,60,48,52,46,38,82,61,40,29.90,29.74,13,3,25,0.01
2014-10-6,72,62,53,56,50,45,88,66,39,29.80,29.72,12,3,18,0.02
2014-10-7,78,66,57,56,52,47,91,64,35,30.00,29.68,12,3,22,0.01
2014-10-8,78,64,51,51,48,43,86,57,33,30.14,30.00,6,0,10,0.00
2014-10-9,63,58,54,58,55,51,96,92,67,30.09,29.95,11,4,23,1.31
2014-10-10,54,53,50,53,48,44,95,85,75,30.20,30.06,9,3,15,0.09
2014-10-11,63,52,42,48,44,40,90,74,47,30.26,30.07,5,1,11,0.00
2014-10-12,59,55,50,57,52,45,95,91,77,30.07,29.77,6,1,10,0.04
2014-10-13,60,57,53,59,56,51,97,96,94,29.79,29.42,18,6,32,1.62
2014-10-14,63,57,52,51,48,42,95,73,47,29.91,29.55,17,12,30,0.03
2014-10-15,70,57,46,44,42,39,79,59,36,30.01,29.90,11,4,20,0.00
2014-10-16,79,62,44,57,49,40,87,63,42,29.93,29.72,8,2,16,0.00
2014-10-17,66,58,52,52,48,44,79,69,55,30.09,29.81,12,4,20,0.00
2014-10-18,64,53,42,46,44,40,91,73,50,30.26,30.09,8,2,12,0.00
2014-10-19,70,55,41,52,46,39,94,75,48,30.23,30.02,7,1,13,0.00
2014-10-20,78,63,54,55,50,45,91,66,34,30.08,29.99,6,1,11,0.00
2014-10-21,76,60,47,50,46,43,90,62,34,30.16,30.07,4,0,7,0.00
2014-10-22,72,58,47,53,48,43,88,71,48,30.26,30.13,9,4,16,0.00
2014-10-23,67,60,53,60,55,47,93,83,77,30.15,30.06,9,2,15,0.03
2014-10-24,77,65,56,65,60,55,97,85,65,30.10,29.94,8,2,15,0.01
2014-10-25,84,69,57,68,58,52,97,72,37,30.10,29.99,5,0,7,0.01
2014-10-26,87,70,57,66,57,49,79,64,43,30.00,29.66,10,5,19,0.00
2014-10-27,76,71,61,62,59,51,74,68,56,29.86,29.58,13,5,22,0.00
2014-10-28,65,57,49,51,40,32,77,54,32,30.16,29.86,12,3,18,0.00
2014-10-29,61,50,39,40,36,35,85,63,39,30.29,30.15,6,1,12,0.00
2014-10-30,68,53,43,49,42,36,87,67,42,30.18,29.99,13,4,20,0.02
2014-10-31,52,42,32,42,27,18,76,55,33,30.52,30.18,16,8,27,0.00
2014-11-1,51,38,27,28,24,22,82,60,37,30.56,30.34,7,2,12,0.00
2014-11-2,63,53,42,36,31,26,60,44,32,30.35,30.07,13,7,23,0.00
2014-11-3,69,59,48,57,48,33,93,68,46,30.12,29.98,15,7,30,0.22
2014-11-4,59,49,44,58,43,41,94,81,71,30.24,30.01,12,2,19,0.02
2014-11-5,64,51,40,43,40,36,93,69,38,30.24,30.06,14,3,17,0.00
2014-11-6,54,46,38,42,34,30,74,61,44,30.37,30.15,16,6,25,0.00
2014-11-7,62,48,31,42,34,27,89,61,36,30.34,29.87,12,4,18,0.00
2014-11-8,56,48,39,44,35,29,72,59,44,30.20,29.89,16,7,25,0.00
2014-11-9,66,51,37,43,37,29,75,60,42,30.11,29.71,13,4,19,0.00
2014-11-10,73,58,38,51,44,31,77,63,44,29.80,29.38,18,8,27,0.00
2014-11-11,38,30,25,31,23,16,88,73,58,30.43,29.80,16,10,26,0.00
2014-11-12,30,25,22,17,13,8,72,59,45,30.59,30.43,13,8,23,0.00
2014-11-13,30,24,17,17,14,11,82,66,50,30.63,30.55,11,5,18,0.00
2014-11-14,32,23,15,16,13,10,83,66,45,30.59,30.43,1,0,5,0.00
2014-11-15,34,28,22,26,20,13,83,71,55,30.43,30.23,5,2,10,0.00
2014-11-16,31,25,19,26,18,11,88,76,63,30.25,30.15,11,3,17,0.00
2014-11-17,24,20,14,16,8,3,78,62,41,30.40,30.19,17,8,27,0.00
2014-11-18,35,23,12,24,11,4,73,60,39,30.43,29.99,9,4,17,0.00
2014-11-19,41,34,24,29,22,17,75,62,47,30.28,29.97,14,5,26,0.00
2014-11-20,41,29,21,23,19,16,81,67,48,30.37,30.26,5,1,11,0.00
2014-11-21,49,36,23,45,27,16,88,72,59,30.37,30.12,10,5,16,0.00
2014-11-22,61,54,49,54,51,45,93,87,76,30.13,29.74,12,5,18,0.00
2014-11-23,56,52,40,55,50,37,96,94,89,29.74,29.31,17,4,30,0.45
2014-11-24,41,36,31,38,28,20,89,73,61,30.13,29.46,18,7,27,0.00
2014-11-25,43,32,23,23,18,14,75,57,32,30.29,30.09,13,2,19,0.00
2014-11-26,41,35,30,37,30,23,93,82,63,30.44,29.99,18,8,29,0.09
2014-11-27,35,29,26,26,24,22,86,79,68,30.61,30.34,11,3,17,0.00
2014-11-28,58,45,28,42,34,24,86,66,46,30.35,29.77,13,5,19,0.00
2014-11-29,67,57,50,49,47,43,88,69,48,29.78,29.60,12,5,20,0.00
2014-11-30,59,38,22,52,30,13,91,73,59,30.50,29.63,14,8,22,0.00
2014-12-1,28,21,18,12,8,4,68,55,41,30.77,30.50,11,6,20,0.00
2014-12-2,36,28,18,26,19,9,82,70,63,30.57,30.16,9,2,19,0.00
2014-12-3,44,35,28,25,22,19,82,62,39,30.44,30.23,8,2,13,0.00
2014-12-4,38,36,33,36,31,23,94,83,62,30.34,30.17,8,3,12,0.00
2014-12-5,44,41,38,43,40,36,96,96,94,30.34,30.08,8,2,13,0.62
2014-12-6,41,36,34,40,35,33,96,96,96,30.64,30.33,6,2,13,0.00
2014-12-7,41,37,34,40,35,33,96,93,88,30.61,30.27,8,2,14,0.03
2014-12-8,52,45,38,43,39,32,96,81,62,30.31,30.22,11,4,19,0.00
2014-12-9,38,32,28,31,27,24,86,82,77,30.52,30.31,8,2,12,0.00
2014-12-10,35,33,31,32,30,27,91,89,86,30.44,30.31,4,1,10,0.02
2014-12-11,38,36,34,35,33,32,91,89,86,30.36,30.29,5,1,9,0.00
2014-12-12,54,44,38,47,41,35,94,87,77,30.38,30.27,4,0,8,0.00
2014-12-13,53,48,42,51,47,40,96,94,91,30.28,30.07,6,3,10,0.00
2014-12-14,62,55,51,55,52,49,94,87,76,30.08,29.83,10,5,18,0.39
2014-12-15,55,47,36,51,45,33,95,91,81,29.91,29.59,16,9,24,0.10
2014-12-16,36,31,26,33,26,22,93,83,77,30.42,29.91,16,9,25,0.01
2014-12-17,31,28,23,26,23,20,86,81,71,30.44,30.33,5,1,10,0.00
2014-12-18,33,31,29,30,29,26,94,92,85,30.36,30.26,5,1,8,0.03
2014-12-19,36,34,32,35,32,30,95,94,93,30.36,30.27,2,0,4,0.08
2014-12-20,40,37,35,37,35,34,96,92,87,30.28,30.20,7,2,13,0.00
2014-12-21,44,42,37,42,39,34,94,91,85,30.20,29.83,8,4,13,0.03
2014-12-22,46,44,41,45,41,38,96,92,85,29.83,29.49,10,3,14,0.25
2014-12-23,44,39,34,39,35,32,93,86,74,29.88,29.58,8,2,14,0.01
2014-12-24,38,36,33,35,33,30,92,89,83,29.91,29.81,10,6,17,0.01
2014-12-25,54,43,31,35,32,29,92,68,46,29.92,29.79,15,8,21,0.00
2014-12-26,57,48,42,49,41,33,94,78,64,30.02,29.88,10,4,13,0.05